Location: Fond Mahaut
(18.0707°N, 63.0465°W)
Time: 15:40:47
(UTC+00:00)

Cosmos 614 Rocket - Pass Details

Date: 08 December 2019
Orbit: 733 x 763 km, 74.1° (Epoch: 19 January)

Event Time Altitude Azimuth Distance (km) Brightness Sun altitude
Rises 22:02:00 0° 188° (S) 3,183 7.6 -6.4°
Reaches altitude 10° 22:04:22 10° 185° (S) 2,256 6.8 -6.9°
Maximum altitude 22:09:27 70° 102° (ESE) 788 3.9 -8.1°
Drops below altitude 10° 22:14:29 10° 20° (NNE) 2,242 6.0 -9.2°
Sets 22:16:50 0° 18° (NNE) 3,162 6.8 -9.7°
